N0KTA-2 Weather Reports


time (UTC)temp
C
wind
direction
speed
KPH
gust
KPH
rain 1hr
cm
rain 24hr
cm
rain mn
cm
humidity
%
barometer
mb
20260505112925 12 29 9.7 27.4 0.00 0.00 0.00 60 1001.9
20260505111924 12 54 12.9 24.1 0.00 0.00 0.00 60 1001.6
20260505110924 12 38 14.5 20.9 0.00 0.00 0.00 60 1001.6
20260505101925 13 44 14.5 25.7 0.00 0.00 0.00 61 1000.9
20260505100924 13 42 12.9 25.7 0.00 0.00 0.00 62 1000.8
20260505095925 13 33 16.1 25.7 0.00 0.00 0.00 63 1000.9
20260505094924 13 26 16.1 35.4 0.00 0.00 0.00 64 1000.4
20260505093925 13 29 14.5 22.5 0.00 0.00 0.00 66 1000.3
20260505092925 13 32 12.9 19.3 0.00 0.00 0.00 68 1000.1
20260505091924 14 31 12.9 24.1 0.00 0.00 0.00 67 1000.1
20260505090925 14 34 11.3 19.3 0.00 0.00 0.00 67 1000.1
20260505085924 15 32 11.3 22.5 0.00 0.00 0.00 70 999.6
20260505084925 15 20 11.3 27.4 0.00 0.00 0.00 71 999.6
20260505083925 15 35 14.5 25.7 0.00 0.00 0.00 71 999.5
20260505082924 16 36 12.9 19.3 0.00 0.00 0.00 73 999.2
20260505081924 16 25 11.3 16.1 0.00 0.00 0.00 73 999.0
20260505080925 17 29 16.1 19.3 0.00 0.00 0.00 70 998.8
20260505075924 18 49 14.5 25.7 0.00 0.00 0.00 67 998.6
20260505074925 18 26 9.7 14.5 0.00 0.00 0.00 66 998.1
20260505073924 19 32 9.7 19.3 0.00 0.00 0.00 71 998.1
20260505072925 20 27 14.5 19.3 0.00 0.00 0.00 73 998.0
20260505071923 20 22 8.0 14.5 0.00 0.00 0.00 71 998.0
20260505070924 20 26 3.2 4.8 0.00 0.00 0.00 71 997.7
20260505065925 20 32 1.6 1.6 0.00 0.00 0.00 71 997.8
20260505064924 20 30 1.6 8.0 0.00 0.00 0.00 69 997.5
20260505063925 20 25 4.8 11.3 0.00 0.00 0.00 70 997.7
20260505062924 21 43 4.8 9.7 0.00 0.00 0.00 70 997.3
20260505061925 21 26 1.6 4.8 0.00 0.00 0.00 69 997.2
20260505060925 21 55 1.6 3.2 0.00 0.00 0.00 69 997.0
20260505055925 21 206 3.2 4.8 0.00 0.00 0.00 69 996.8
20260505054924 21 181 8.0 14.5 0.00 0.00 0.00 68 996.8
20260505053925 21 188 12.9 20.9 0.00 0.00 0.00 68 996.7
20260505052924 21 188 14.5 22.5 0.00 0.00 0.00 68 996.8
20260505051925 21 173 8.0 11.3 0.00 0.00 0.00 65 996.7
20260505050924 21 171 11.3 22.5 0.00 0.00 0.00 64 996.5
20260505040924 21 165 0.0 4.8 0.00 0.00 0.00 69 996.5
20260505035923 22 183 1.6 4.8 0.00 0.00 0.00 68 996.6
20260505034925 22 179 8.0 14.5 0.00 0.00 0.00 67 996.6
20260505033924 22 194 11.3 16.1 0.00 0.00 0.00 66 996.3
20260505032923 23 176 4.8 9.7 0.00 0.00 0.00 65 996.6
20260505031924 23 196 3.2 4.8 0.00 0.00 0.00 64 997.0
20260505030923 23 188 9.7 16.1 0.00 0.00 0.00 63 996.9
20260505025924 23 178 4.8 9.7 0.00 0.00 0.00 63 997.1
20260505024923 23 188 8.0 9.7 0.00 0.00 0.00 62 997.3
20260505023924 23 187 9.7 14.5 0.00 0.00 0.00 61 997.1
20260505022924 23 192 4.8 8.0 0.00 0.00 0.00 61 997.2
20260505021925 23 184 9.7 16.1 0.00 0.00 0.00 60 997.1
20260505020924 23 195 8.0 14.5 0.00 0.00 0.00 59 997.6
20260505015925 24 194 3.2 8.0 0.00 0.00 0.00 59 997.5
20260505014923 24 176 9.7 9.7 0.00 0.00 0.00 58 996.9
20260505013925 24 192 8.0 9.7 0.00 0.00 0.00 56 996.9
20260505012924 25 216 3.2 4.8 0.00 0.00 0.00 55 996.8
20260505011925 25 181 3.2 11.3 0.00 0.00 0.00 54 996.8
20260505010924 25 165 4.8 9.7 0.00 0.00 0.00 53 996.7
20260505005925 25 205 8.0 11.3 0.00 0.00 0.00 53 996.4
20260505004924 25 174 8.0 9.7 0.00 0.00 0.00 52 996.3
20260505003925 26 173 4.8 8.0 0.00 0.00 0.00 51 996.6
20260505002924 26 184 3.2 9.7 0.00 0.00 0.00 50 996.5
20260505001924 26 178 8.0 9.7 0.00 0.00 0.00 48 996.5
20260505000925 26 186 4.8 8.0 0.00 0.00 0.00 48 996.5
20260504235923 26 177 8.0 9.7 0.00 0.00 0.00 47 996.8
20260504234924 26 190 4.8 9.7 0.00 0.00 0.00 47 996.8
20260504233924 26 181 4.8 19.3 0.00 0.00 0.00 47 996.8
20260504232925 26 192 4.8 11.3 0.00 0.00 0.00 46 996.9
20260504231924 27 196 8.0 11.3 0.00 0.00 0.00 45 996.8
20260504230924 27 194 9.7 19.3 0.00 0.00 0.00 44 996.7
20260504225925 27 249 1.6 14.5 0.00 0.00 0.00 44 996.7
20260504224924 27 196 3.2 16.1 0.00 0.00 0.00 45 996.7
20260504223924 27 204 8.0 11.3 0.00 0.00 0.00 42 996.7
20260504222923 27 211 4.8 16.1 0.00 0.00 0.00 43 996.7
20260504221924 27 268 4.8 8.0 0.00 0.00 0.00 43 996.7
20260504220923 27 207 8.0 16.1 0.00 0.00 0.00 42 996.8
20260504215924 28 233 11.3 11.3 0.00 0.00 0.00 40 996.8
20260504214923 28 238 3.2 16.1 0.00 0.00 0.00 41 996.9
20260504213924 28 177 11.3 25.7 0.00 0.00 0.00 40 997.0
20260504212923 28 187 11.3 22.5 0.00 0.00 0.00 41 997.1
20260504211924 28 189 4.8 11.3 0.00 0.00 0.00 41 997.1
20260504210923 28 192 11.3 20.9 0.00 0.00 0.00 40 997.2
20260504205924 28 190 9.7 12.9 0.00 0.00 0.00 40 997.3
20260504204925 28 189 8.0 16.1 0.00 0.00 0.00 41 997.4
20260504203924 28 182 11.3 16.1 0.00 0.00 0.00 39 997.5
20260504202923 29 270 4.8 3.2 0.00 0.00 0.00 38 997.5
20260504201924 29 195 11.3 19.3 0.00 0.00 0.00 39 997.5
20260504200923 29 187 9.7 11.3 0.00 0.00 0.00 38 997.7
20260504195924 28 260 1.6 4.8 0.00 0.00 0.00 39 997.7
20260504194924 29 285 1.6 3.2 0.00 0.00 0.00 37 998.0
20260504193925 29 210 3.2 20.9 0.00 0.00 0.00 38 998.0
20260504192924 29 229 3.2 8.0 0.00 0.00 0.00 39 998.0
20260504191925 28 211 11.3 16.1 0.00 0.00 0.00 38 998.2
20260504190923 28 262 1.6 3.2 0.00 0.00 0.00 40 998.2
20260504185924 28 209 1.6 4.8 0.00 0.00 0.00 41 998.4
20260504184923 28 177 9.7 16.1 0.00 0.00 0.00 40 998.5
20260504183924 28 267 1.6 3.2 0.00 0.00 0.00 39 998.5
20260504182923 28 218 3.2 14.5 0.00 0.00 0.00 40 998.6
20260504181924 27 279 1.6 1.6 0.00 0.00 0.00 40 998.8
20260504180925 27 290 3.2 4.8 0.00 0.00 0.00 40 999.1
20260504175923 27 288 1.6 3.2 0.00 0.00 0.00 42 999.2
20260504174924 26 287 3.2 3.2 0.00 0.00 0.00 42 999.2
20260504173923 26 281 1.6 1.6 0.00 0.00 0.00 42 999.2
20260504172923 26 263 1.6 3.2 0.00 0.00 0.00 42 999.3
20260504171924 26 204 3.2 11.3 0.00 0.00 0.00 43 999.3
20260504170923 25 292 1.6 3.2 0.00 0.00 0.00 43 999.3
20260504150926 21 257 1.6 4.8 0.00 0.00 0.00 53 1000.1
20260504140925 19 283 1.6 1.6 0.00 0.00 0.00 56 1000.6